| time (UTC) | temp F | wind direction | speed MPH | gust MPH | rain 1hr in | rain 24hr in | rain mn in | humidity % | barometer mb |
| 20260508012548 | 56 | 0 | 0.0 | 2.0 | 0.00 | 0.00 | 0.00 | 29 | 1008.6 |
| 20260508012048 | 56 | 301 | 1.0 | 2.0 | 0.00 | 0.00 | 0.00 | 28 | 1008.6 |
| 20260508011549 | 57 | 301 | 0.0 | 2.0 | 0.00 | 0.00 | 0.00 | 28 | 1008.5 |
| 20260508011048 | 58 | 301 | 1.0 | 3.0 | 0.00 | 0.00 | 0.00 | 27 | 1008.5 |
| 20260508010549 | 58 | 0 | 1.0 | 3.0 | 0.00 | 0.00 | 0.00 | 26 | 1008.5 |
| 20260508010050 | 59 | 296 | 1.0 | 4.0 | 0.00 | 0.00 | 0.00 | 26 | 1008.5 |
| 20260508005547 | 59 | 305 | 2.0 | 4.0 | 0.00 | 0.00 | 0.00 | 26 | 1008.4 |
| 20260508005046 | 59 | 300 | 1.0 | 4.0 | 0.00 | 0.00 | 0.00 | 26 | 1008.3 |
| 20260508004550 | 59 | 313 | 0.0 | 3.0 | 0.00 | 0.00 | 0.00 | 27 | 1008.3 |
| 20260508004048 | 60 | 295 | 1.0 | 4.0 | 0.00 | 0.00 | 0.00 | 26 | 1008.3 |
| 20260508003547 | 60 | 306 | 1.0 | 5.0 | 0.00 | 0.00 | 0.00 | 25 | 1008.3 |
| 20260508003100 | 60 | 300 | 2.0 | 5.0 | 0.00 | 0.00 | 0.00 | 25 | 1008.3 |
| 20260508002548 | 60 | 304 | 1.0 | 5.0 | 0.00 | 0.00 | 0.00 | 27 | 1008.2 |
| 20260508002047 | 60 | 0 | 1.0 | 5.0 | 0.00 | 0.00 | 0.00 | 27 | 1008.2 |
| 20260508001553 | 60 | 302 | 3.0 | 5.0 | 0.00 | 0.00 | 0.00 | 27 | 1008.2 |
| 20260508001048 | 61 | 352 | 1.0 | 6.0 | 0.00 | 0.00 | 0.00 | 27 | 1008.3 |
| 20260508000546 | 61 | 306 | 2.0 | 7.0 | 0.00 | 0.00 | 0.00 | 27 | 1008.3 |
| 20260508000051 | 62 | 206 | 2.0 | 7.0 | 0.00 | 0.00 | 0.00 | 26 | 1008.3 |
| 20260507235551 | 62 | 310 | 2.0 | 7.0 | 0.00 | 0.00 | 0.00 | 25 | 1008.2 |
| 20260507235047 | 63 | 292 | 2.0 | 12.0 | 0.00 | 0.00 | 0.00 | 26 | 1008.3 |
| 20260507234551 | 63 | 314 | 1.0 | 12.0 | 0.00 | 0.00 | 0.00 | 26 | 1008.4 |
| 20260507234048 | 63 | 254 | 4.0 | 12.0 | 0.00 | 0.00 | 0.00 | 24 | 1008.3 |
| 20260507233547 | 63 | 248 | 0.0 | 7.0 | 0.00 | 0.00 | 0.00 | 25 | 1008.4 |
| 20260507233052 | 64 | 65 | 1.0 | 7.0 | 0.00 | 0.00 | 0.00 | 26 | 1008.3 |
| 20260507232545 | 64 | 273 | 3.0 | 8.0 | 0.00 | 0.00 | 0.00 | 26 | 1008.4 |
| 20260507232043 | 64 | 302 | 2.0 | 8.0 | 0.00 | 0.00 | 0.00 | 25 | 1008.3 |
| 20260507231556 | 63 | 290 | 2.0 | 6.0 | 0.00 | 0.00 | 0.00 | 26 | 1008.4 |
| 20260507231044 | 63 | 298 | 1.0 | 7.0 | 0.00 | 0.00 | 0.00 | 27 | 1008.4 |
| 20260507230543 | 63 | 279 | 1.0 | 7.0 | 0.00 | 0.00 | 0.00 | 26 | 1008.5 |
| 20260507230059 | 64 | 5 | 2.0 | 7.0 | 0.00 | 0.00 | 0.00 | 24 | 1008.5 |
| 20260507225544 | 64 | 292 | 1.0 | 6.0 | 0.00 | 0.00 | 0.00 | 24 | 1008.5 |
| 20260507225044 | 64 | 296 | 3.0 | 6.0 | 0.00 | 0.00 | 0.00 | 25 | 1008.6 |
| 20260507224613 | 63 | 272 | 1.0 | 8.0 | 0.00 | 0.00 | 0.00 | 26 | 1008.5 |
| 20260507224047 | 63 | 251 | 1.0 | 8.0 | 0.00 | 0.00 | 0.00 | 24 | 1008.6 |
| 20260507223545 | 64 | 255 | 3.0 | 8.0 | 0.00 | 0.00 | 0.00 | 24 | 1008.7 |
| 20260507223056 | 64 | 265 | 2.0 | 8.0 | 0.00 | 0.00 | 0.00 | 25 | 1008.6 |
| 20260507222544 | 64 | 265 | 3.0 | 9.0 | 0.00 | 0.00 | 0.00 | 24 | 1008.6 |
| 20260507222043 | 64 | 323 | 2.0 | 9.0 | 0.00 | 0.00 | 0.00 | 24 | 1008.7 |
| 20260507221554 | 64 | 237 | 3.0 | 9.0 | 0.00 | 0.00 | 0.00 | 23 | 1008.7 |
| 20260507221045 | 64 | 246 | 2.0 | 6.0 | 0.00 | 0.00 | 0.00 | 24 | 1008.8 |
| 20260507220546 | 64 | 309 | 1.0 | 13.0 | 0.00 | 0.00 | 0.00 | 23 | 1008.9 |
| 20260507220105 | 65 | 285 | 6.0 | 13.0 | 0.00 | 0.00 | 0.00 | 22 | 1008.9 |
| 20260507215549 | 65 | 242 | 2.0 | 16.0 | 0.00 | 0.00 | 0.00 | 22 | 1009.0 |
| 20260507215043 | 64 | 211 | 3.0 | 16.0 | 0.00 | 0.00 | 0.00 | 23 | 1009.0 |
| 20260507214606 | 64 | 214 | 2.0 | 10.0 | 0.00 | 0.00 | 0.00 | 24 | 1008.9 |
| 20260507214046 | 65 | 324 | 2.0 | 11.0 | 0.00 | 0.00 | 0.00 | 25 | 1009.0 |
| 20260507213544 | 64 | 245 | 2.0 | 12.0 | 0.00 | 0.00 | 0.00 | 23 | 1009.0 |
| 20260507213058 | 65 | 286 | 5.0 | 12.0 | 0.00 | 0.00 | 0.00 | 22 | 1009.2 |
| 20260507212545 | 65 | 250 | 2.0 | 12.0 | 0.00 | 0.00 | 0.00 | 23 | 1009.3 |
| 20260507212047 | 64 | 197 | 3.0 | 12.0 | 0.00 | 0.00 | 0.00 | 25 | 1009.3 |
| 20260507211626 | 64 | 289 | 3.0 | 11.0 | 0.00 | 0.00 | 0.00 | 24 | 1009.3 |
| 20260507211043 | 64 | 298 | 2.0 | 11.0 | 0.00 | 0.00 | 0.00 | 25 | 1009.4 |
| 20260507210545 | 64 | 350 | 1.0 | 12.0 | 0.00 | 0.00 | 0.00 | 27 | 1009.3 |
| 20260507210057 | 63 | 195 | 5.0 | 12.0 | 0.00 | 0.00 | 0.00 | 25 | 1009.3 |
| 20260507205544 | 62 | 244 | 4.0 | 11.0 | 0.00 | 0.00 | 0.00 | 24 | 1009.5 |
| 20260507205045 | 63 | 215 | 2.0 | 12.0 | 0.00 | 0.00 | 0.00 | 25 | 1009.5 |
| 20260507204607 | 64 | 289 | 4.0 | 12.0 | 0.00 | 0.00 | 0.00 | 24 | 1009.6 |
| 20260507204044 | 64 | 229 | 2.0 | 10.0 | 0.00 | 0.00 | 0.00 | 26 | 1009.5 |
| 20260507203544 | 63 | 0 | 4.0 | 10.0 | 0.00 | 0.00 | 0.00 | 26 | 1009.6 |
| 20260507203054 | 62 | 287 | 4.0 | 10.0 | 0.00 | 0.00 | 0.00 | 27 | 1009.6 |
| 20260507202544 | 61 | 45 | 1.0 | 8.0 | 0.00 | 0.00 | 0.00 | 27 | 1009.6 |
| 20260507202044 | 61 | 288 | 2.0 | 9.0 | 0.00 | 0.00 | 0.00 | 26 | 1009.7 |
| 20260507201610 | 62 | 171 | 4.0 | 11.0 | 0.00 | 0.00 | 0.00 | 25 | 1009.8 |
| 20260507201043 | 63 | 334 | 4.0 | 11.0 | 0.00 | 0.00 | 0.00 | 25 | 1009.8 |
| 20260507200542 | 63 | 310 | 4.0 | 11.0 | 0.00 | 0.00 | 0.00 | 26 | 1009.7 |
| 20260507195545 | 62 | 234 | 6.0 | 11.0 | 0.00 | 0.00 | 0.00 | 23 | 1009.9 |
| 20260507195045 | 63 | 296 | 3.0 | 9.0 | 0.00 | 0.00 | 0.00 | 26 | 1010.1 |
| 20260507194558 | 63 | 284 | 2.0 | 10.0 | 0.00 | 0.00 | 0.00 | 26 | 1010.0 |
| 20260507194043 | 62 | 263 | 4.0 | 12.0 | 0.00 | 0.00 | 0.00 | 26 | 1010.2 |
| 20260507193546 | 62 | 344 | 3.0 | 12.0 | 0.00 | 0.00 | 0.00 | 25 | 1010.1 |
| 20260507193053 | 62 | 262 | 3.0 | 10.0 | 0.00 | 0.00 | 0.00 | 26 | 1010.0 |
| 20260507192544 | 61 | 36 | 4.0 | 10.0 | 0.00 | 0.00 | 0.00 | 26 | 1010.1 |
| 20260507192045 | 61 | 15 | 3.0 | 8.0 | 0.00 | 0.00 | 0.00 | 25 | 1010.3 |
| 20260507191556 | 62 | 42 | 2.0 | 9.0 | 0.00 | 0.00 | 0.00 | 27 | 1010.3 |
| 20260507191046 | 62 | 9 | 3.0 | 9.0 | 0.00 | 0.00 | 0.00 | 25 | 1010.4 |
| 20260507190546 | 60 | 207 | 2.0 | 8.0 | 0.00 | 0.00 | 0.00 | 28 | 1010.3 |
| 20260507190053 | 61 | 360 | 3.0 | 9.0 | 0.00 | 0.00 | 0.00 | 25 | 1010.4 |
| 20260507185545 | 61 | 314 | 3.0 | 9.0 | 0.00 | 0.00 | 0.00 | 27 | 1010.5 |
| 20260507185045 | 60 | 303 | 2.0 | 7.0 | 0.00 | 0.00 | 0.00 | 28 | 1010.4 |
| 20260507184554 | 60 | 224 | 3.0 | 8.0 | 0.00 | 0.00 | 0.00 | 28 | 1010.5 |
| 20260507184043 | 60 | 204 | 2.0 | 9.0 | 0.00 | 0.00 | 0.00 | 29 | 1010.6 |
| 20260507183544 | 60 | 57 | 2.0 | 11.0 | 0.00 | 0.00 | 0.00 | 27 | 1010.6 |
| 20260507183053 | 60 | 332 | 3.0 | 11.0 | 0.00 | 0.00 | 0.00 | 29 | 1010.7 |
| 20260507182544 | 60 | 286 | 4.0 | 11.0 | 0.00 | 0.00 | 0.00 | 28 | 1010.7 |
| 20260507182044 | 60 | 299 | 2.0 | 9.0 | 0.00 | 0.00 | 0.00 | 31 | 1010.7 |
| 20260507181551 | 60 | 111 | 1.0 | 9.0 | 0.00 | 0.00 | 0.00 | 30 | 1010.8 |
| 20260507181044 | 59 | 263 | 2.0 | 10.0 | 0.00 | 0.00 | 0.00 | 29 | 1010.9 |
| 20260507180548 | 59 | 95 | 4.0 | 14.0 | 0.00 | 0.00 | 0.00 | 30 | 1010.8 |
| 20260507180051 | 59 | 349 | 7.0 | 14.0 | 0.00 | 0.00 | 0.00 | 29 | 1010.9 |
| 20260507175545 | 59 | 342 | 2.0 | 6.0 | 0.00 | 0.00 | 0.00 | 34 | 1010.9 |
| 20260507175046 | 58 | 0 | 2.0 | 10.0 | 0.00 | 0.00 | 0.00 | 32 | 1011.0 |
| 20260507174550 | 57 | 29 | 2.0 | 10.0 | 0.00 | 0.00 | 0.00 | 33 | 1011.0 |
| 20260507174045 | 58 | 29 | 3.0 | 10.0 | 0.00 | 0.00 | 0.00 | 31 | 1011.1 |
| 20260507173546 | 57 | 290 | 2.0 | 13.0 | 0.00 | 0.00 | 0.00 | 31 | 1011.2 |
| 20260507173054 | 57 | 352 | 6.0 | 13.0 | 0.00 | 0.00 | 0.00 | 31 | 1011.2 |
| 20260507172546 | 57 | 11 | 2.0 | 12.0 | 0.00 | 0.00 | 0.00 | 32 | 1011.2 |
| 20260507172043 | 57 | 331 | 4.0 | 12.0 | 0.00 | 0.00 | 0.00 | 31 | 1011.2 |
| 20260507171555 | 57 | 227 | 4.0 | 10.0 | 0.00 | 0.00 | 0.00 | 32 | 1011.3 |
| 20260507171045 | 57 | 271 | 3.0 | 8.0 | 0.00 | 0.00 | 0.00 | 31 | 1011.4 |
| 20260507170544 | 57 | 305 | 1.0 | 6.0 | 0.00 | 0.00 | 0.00 | 31 | 1011.4 |
| 20260507170056 | 56 | 333 | 1.0 | 5.0 | 0.00 | 0.00 | 0.00 | 34 | 1011.5 |
| 20260507165542 | 56 | 0 | 2.0 | 9.0 | 0.00 | 0.00 | 0.00 | 31 | 1011.6 |
| 20260507165050 | 56 | 40 | 3.0 | 10.0 | 0.00 | 0.00 | 0.00 | 35 | 1011.6 |
| 20260507164554 | 55 | 291 | 3.0 | 10.0 | 0.00 | 0.00 | 0.00 | 36 | 1011.6 |
| 20260507164047 | 55 | 5 | 4.0 | 11.0 | 0.00 | 0.00 | 0.00 | 33 | 1011.6 |
| 20260507163545 | 55 | 123 | 4.0 | 11.0 | 0.00 | 0.00 | 0.00 | 35 | 1011.6 |
| 20260507163054 | 54 | 261 | 2.0 | 14.0 | 0.00 | 0.00 | 0.00 | 34 | 1011.6 |
| 20260507162545 | 54 | 5 | 5.0 | 14.0 | 0.00 | 0.00 | 0.00 | 36 | 1011.6 |
| 20260507162045 | 54 | 11 | 6.0 | 14.0 | 0.00 | 0.00 | 0.00 | 37 | 1011.6 |
| 20260507161554 | 54 | 342 | 4.0 | 10.0 | 0.00 | 0.00 | 0.00 | 39 | 1011.7 |
| 20260507161045 | 54 | 84 | 2.0 | 11.0 | 0.00 | 0.00 | 0.00 | 37 | 1011.7 |
| 20260507160548 | 54 | 26 | 5.0 | 11.0 | 0.00 | 0.00 | 0.00 | 37 | 1011.8 |
| 20260507160052 | 53 | 68 | 4.0 | 10.0 | 0.00 | 0.00 | 0.00 | 38 | 1011.8 |
| 20260507155545 | 53 | 345 | 4.0 | 10.0 | 0.00 | 0.00 | 0.00 | 39 | 1011.9 |
| 20260507155046 | 53 | 0 | 4.0 | 11.0 | 0.00 | 0.00 | 0.00 | 38 | 1011.8 |
| 20260507154555 | 53 | 20 | 3.0 | 11.0 | 0.00 | 0.00 | 0.00 | 40 | 1011.8 |
| 20260507154047 | 53 | 23 | 6.0 | 11.0 | 0.00 | 0.00 | 0.00 | 38 | 1011.8 |
| 20260507153545 | 53 | 19 | 6.0 | 15.0 | 0.00 | 0.00 | 0.00 | 39 | 1011.7 |
| 20260507153100 | 53 | 53 | 4.0 | 15.0 | 0.00 | 0.00 | 0.00 | 39 | 1011.8 |
| 20260507152549 | 52 | 28 | 6.0 | 12.0 | 0.00 | 0.00 | 0.00 | 39 | 1011.7 |
| 20260507152044 | 52 | 54 | 5.0 | 13.0 | 0.00 | 0.00 | 0.00 | 40 | 1011.8 |
| 20260507151555 | 51 | 33 | 5.0 | 13.0 | 0.00 | 0.00 | 0.00 | 40 | 1011.8 |
| 20260507151045 | 51 | 39 | 8.0 | 13.0 | 0.00 | 0.00 | 0.00 | 39 | 1011.8 |
| 20260507150545 | 51 | 43 | 5.0 | 11.0 | 0.00 | 0.00 | 0.00 | 38 | 1011.8 |
| 20260507150057 | 51 | 19 | 6.0 | 11.0 | 0.00 | 0.00 | 0.00 | 38 | 1011.8 |
| 20260507145546 | 51 | 21 | 3.0 | 10.0 | 0.00 | 0.00 | 0.00 | 41 | 1011.8 |
| 20260507145045 | 51 | 27 | 5.0 | 11.0 | 0.00 | 0.00 | 0.00 | 40 | 1011.8 |
| 20260507144556 | 51 | 311 | 4.0 | 11.0 | 0.00 | 0.00 | 0.00 | 43 | 1011.8 |
| 20260507144049 | 50 | 30 | 5.0 | 11.0 | 0.00 | 0.00 | 0.00 | 45 | 1011.8 |
| 20260507143545 | 50 | 9 | 5.0 | 11.0 | 0.00 | 0.00 | 0.00 | 46 | 1011.9 |
| 20260507143054 | 50 | 51 | 4.0 | 11.0 | 0.00 | 0.00 | 0.00 | 47 | 1011.9 |
| 20260507142546 | 50 | 36 | 4.0 | 11.0 | 0.00 | 0.00 | 0.00 | 49 | 1011.9 |
| 20260507142043 | 50 | 360 | 3.0 | 11.0 | 0.00 | 0.00 | 0.00 | 49 | 1011.9 |
| 20260507141550 | 49 | 49 | 2.0 | 10.0 | 0.00 | 0.00 | 0.00 | 52 | 1011.9 |
| 20260507141048 | 49 | 130 | 3.0 | 9.0 | 0.00 | 0.00 | 0.00 | 51 | 1012.0 |
| 20260507140550 | 49 | 21 | 3.0 | 9.0 | 0.00 | 0.00 | 0.00 | 51 | 1011.9 |
| 20260507140105 | 48 | 49 | 3.0 | 9.0 | 0.00 | 0.00 | 0.00 | 51 | 1011.8 |
| 20260507135548 | 48 | 63 | 3.0 | 8.0 | 0.00 | 0.00 | 0.00 | 50 | 1011.9 |
| 20260507135052 | 48 | 20 | 4.0 | 7.0 | 0.00 | 0.00 | 0.00 | 51 | 1011.8 |
| 20260507134556 | 48 | 61 | 4.0 | 9.0 | 0.00 | 0.00 | 0.00 | 52 | 1011.8 |
| 20260507134045 | 48 | 53 | 5.0 | 9.0 | 0.00 | 0.00 | 0.00 | 51 | 1011.8 |
| 20260507133549 | 47 | 81 | 4.0 | 9.0 | 0.00 | 0.00 | 0.00 | 51 | 1011.7 |
| 20260507133054 | 47 | 59 | 5.0 | 9.0 | 0.00 | 0.00 | 0.00 | 52 | 1011.8 |
| 20260507132547 | 47 | 65 | 6.0 | 10.0 | 0.00 | 0.00 | 0.00 | 52 | 1011.8 |
| 20260507132048 | 46 | 78 | 6.0 | 10.0 | 0.00 | 0.00 | 0.00 | 54 | 1011.8 |
| 20260507131600 | 46 | 98 | 5.0 | 8.0 | 0.00 | 0.00 | 0.00 | 57 | 1011.7 |
| 20260507131050 | 45 | 74 | 5.0 | 8.0 | 0.00 | 0.00 | 0.00 | 58 | 1011.8 |
| 20260507130548 | 44 | 88 | 5.0 | 8.0 | 0.00 | 0.00 | 0.00 | 60 | 1011.8 |
| 20260507130055 | 44 | 80 | 6.0 | 8.0 | 0.00 | 0.00 | 0.00 | 61 | 1011.7 |
| 20260507125547 | 43 | 63 | 3.0 | 6.0 | 0.00 | 0.00 | 0.00 | 64 | 1011.8 |
| 20260507125051 | 42 | 98 | 3.0 | 4.0 | 0.00 | 0.00 | 0.00 | 66 | 1011.8 |
| 20260507124553 | 41 | 90 | 2.0 | 3.0 | 0.00 | 0.00 | 0.00 | 68 | 1011.9 |
| 20260507124048 | 40 | 125 | 0.0 | 3.0 | 0.00 | 0.00 | 0.00 | 69 | 1012.1 |
| 20260507123549 | 39 | 125 | 0.0 | 6.0 | 0.00 | 0.00 | 0.00 | 71 | 1012.1 |
| 20260507123054 | 39 | 125 | 2.0 | 6.0 | 0.00 | 0.00 | 0.00 | 73 | 1012.1 |
| 20260507122547 | 38 | 100 | 1.0 | 3.0 | 0.00 | 0.00 | 0.00 | 74 | 1012.0 |
| 20260507122045 | 37 | 0 | 0.0 | 2.0 | 0.00 | 0.00 | 0.00 | 75 | 1012.1 |
| 20260507121552 | 37 | 0 | 0.0 | 3.0 | 0.00 | 0.00 | 0.00 | 76 | 1012.1 |
| 20260507121049 | 36 | 0 | 0.0 | 3.0 | 0.00 | 0.00 | 0.00 | 77 | 1012.1 |
| 20260507120548 | 35 | 332 | 0.0 | 3.0 | 0.00 | 0.00 | 0.00 | 77 | 1012.1 |
| 20260507120053 | 35 | 0 | 0.0 | 0.0 | 0.00 | 0.00 | 0.00 | 77 | 1012.2 |
| 20260507115547 | 34 | 0 | 0.0 | 2.0 | 0.00 | 0.00 | 0.00 | 78 | 1012.2 |
| 20260507115048 | 34 | 0 | 0.0 | 2.0 | 0.00 | 0.00 | 0.00 | 78 | 1012.2 |
| 20260507114554 | 34 | 0 | 1.0 | 2.0 | 0.00 | 0.00 | 0.00 | 79 | 1012.2 |
| 20260507114045 | 33 | 332 | 0.0 | 1.0 | 0.00 | 0.00 | 0.00 | 79 | 1012.2 |
| 20260507113546 | 32 | 0 | 0.0 | 3.0 | 0.00 | 0.00 | 0.00 | 79 | 1012.2 |
| 20260507113054 | 32 | 0 | 0.0 | 3.0 | 0.00 | 0.00 | 0.00 | 79 | 1012.2 |
| 20260507112548 | 31 | 332 | 2.0 | 3.0 | 0.00 | 0.00 | 0.00 | 78 | 1012.2 |
| 20260507112044 | 31 | 352 | 0.0 | 4.0 | 0.00 | 0.00 | 0.00 | 77 | 1012.1 |
| 20260507111556 | 32 | 0 | 0.0 | 4.0 | 0.00 | 0.00 | 0.00 | 76 | 1012.2 |
| 20260507111125 | 32 | 311 | 0.0 | 3.0 | 0.00 | 0.00 | 0.00 | 76 | 1012.2 |
| 20260507110545 | 33 | 0 | 0.0 | 3.0 | 0.00 | 0.00 | 0.00 | 74 | 1012.3 |
| 20260507110053 | 33 | 319 | 1.0 | 3.0 | 0.00 | 0.00 | 0.00 | 75 | 1012.3 |
| 20260507105544 | 34 | 216 | 2.0 | 3.0 | 0.00 | 0.00 | 0.00 | 75 | 1012.3 |
| 20260507105045 | 34 | 227 | 1.0 | 4.0 | 0.00 | 0.00 | 0.00 | 75 | 1012.4 |
| 20260507104553 | 34 | 227 | 2.0 | 4.0 | 0.00 | 0.00 | 0.00 | 74 | 1012.6 |
| 20260507104047 | 35 | 194 | 2.0 | 4.0 | 0.00 | 0.00 | 0.00 | 73 | 1012.6 |
| 20260507103547 | 35 | 234 | 1.0 | 3.0 | 0.00 | 0.00 | 0.00 | 73 | 1012.5 |
| 20260507103051 | 35 | 329 | 1.0 | 2.0 | 0.00 | 0.00 | 0.00 | 74 | 1012.4 |
| 20260507102545 | 35 | 0 | 0.0 | 1.0 | 0.00 | 0.00 | 0.00 | 74 | 1012.5 |
| 20260507102046 | 35 | 0 | 0.0 | 0.0 | 0.00 | 0.00 | 0.00 | 74 | 1012.4 |
| 20260507101604 | 35 | 0 | 0.0 | 2.0 | 0.00 | 0.00 | 0.00 | 75 | 1012.5 |
| 20260507101047 | 35 | 0 | 0.0 | 2.0 | 0.00 | 0.00 | 0.00 | 76 | 1012.5 |
| 20260507100546 | 35 | 330 | 1.0 | 3.0 | 0.00 | 0.00 | 0.00 | 76 | 1012.6 |
| 20260507095545 | 35 | 330 | 1.0 | 3.0 | 0.00 | 0.00 | 0.00 | 75 | 1012.6 |
| 20260507095048 | 35 | 330 | 1.0 | 3.0 | 0.00 | 0.00 | 0.00 | 74 | 1012.7 |
| 20260507094559 | 35 | 330 | 1.0 | 3.0 | 0.00 | 0.00 | 0.00 | 74 | 1012.8 |
| 20260507094050 | 35 | 330 | 1.0 | 2.0 | 0.00 | 0.00 | 0.00 | 74 | 1012.8 |
| 20260507093545 | 35 | 0 | 0.0 | 3.0 | 0.00 | 0.00 | 0.00 | 73 | 1012.8 |
| 20260507093100 | 35 | 0 | 0.0 | 3.0 | 0.00 | 0.00 | 0.00 | 73 | 1012.7 |
| 20260507092545 | 35 | 329 | 1.0 | 3.0 | 0.00 | 0.00 | 0.00 | 73 | 1012.8 |
| 20260507092044 | 35 | 330 | 1.0 | 3.0 | 0.00 | 0.00 | 0.00 | 73 | 1012.8 |
| 20260507091603 | 35 | 330 | 0.0 | 2.0 | 0.00 | 0.00 | 0.00 | 73 | 1012.9 |
| 20260507091048 | 35 | 0 | 0.0 | 2.0 | 0.00 | 0.00 | 0.00 | 72 | 1012.9 |
| 20260507090545 | 35 | 0 | 0.0 | 3.0 | 0.00 | 0.00 | 0.00 | 71 | 1012.8 |
| 20260507090110 | 36 | 0 | 0.0 | 3.0 | 0.00 | 0.00 | 0.00 | 69 | 1012.8 |
| 20260507085544 | 36 | 329 | 1.0 | 3.0 | 0.00 | 0.00 | 0.00 | 68 | 1012.9 |
| 20260507085045 | 37 | 323 | 1.0 | 5.0 | 0.00 | 0.00 | 0.00 | 68 | 1012.8 |
| 20260507084549 | 37 | 182 | 2.0 | 5.0 | 0.00 | 0.00 | 0.00 | 68 | 1012.8 |
| 20260507084044 | 37 | 162 | 2.0 | 4.0 | 0.00 | 0.00 | 0.00 | 68 | 1012.8 |
| 20260507083544 | 37 | 146 | 1.0 | 2.0 | 0.00 | 0.00 | 0.00 | 68 | 1012.8 |
| 20260507083102 | 37 | 0 | 1.0 | 2.0 | 0.00 | 0.00 | 0.00 | 69 | 1012.7 |
| 20260507082550 | 36 | 146 | 1.0 | 2.0 | 0.00 | 0.00 | 0.00 | 70 | 1012.8 |
| 20260507082045 | 36 | 146 | 0.0 | 3.0 | 0.00 | 0.00 | 0.00 | 71 | 1012.8 |
| 20260507081601 | 36 | 146 | 1.0 | 5.0 | 0.00 | 0.00 | 0.00 | 71 | 1012.8 |
| 20260507081045 | 36 | 146 | 1.0 | 5.0 | 0.00 | 0.00 | 0.00 | 71 | 1012.8 |
| 20260507080548 | 36 | 159 | 3.0 | 5.0 | 0.00 | 0.00 | 0.00 | 71 | 1012.8 |
| 20260507080057 | 35 | 128 | 1.0 | 3.0 | 0.00 | 0.00 | 0.00 | 72 | 1012.8 |
| 20260507075548 | 35 | 128 | 1.0 | 3.0 | 0.00 | 0.00 | 0.00 | 72 | 1012.8 |
| 20260507075049 | 35 | 30 | 0.0 | 2.0 | 0.00 | 0.00 | 0.00 | 70 | 1012.8 |
| 20260507074553 | 36 | 0 | 0.0 | 2.0 | 0.00 | 0.00 | 0.00 | 69 | 1012.9 |
| 20260507074048 | 38 | 30 | 0.0 | 2.0 | 0.00 | 0.00 | 0.00 | 68 | 1013.1 |
| 20260507073547 | 38 | 0 | 1.0 | 2.0 | 0.00 | 0.00 | 0.00 | 70 | 1013.3 |
| 20260507073101 | 37 | 309 | 1.0 | 2.0 | 0.00 | 0.00 | 0.00 | 70 | 1013.5 |
| 20260507072548 | 37 | 311 | 1.0 | 2.0 | 0.00 | 0.00 | 0.00 | 70 | 1013.4 |
| 20260507072049 | 37 | 0 | 0.0 | 1.0 | 0.00 | 0.00 | 0.00 | 71 | 1013.4 |
| 20260507071556 | 37 | 0 | 0.0 | 0.0 | 0.00 | 0.00 | 0.00 | 71 | 1013.3 |
| 20260507071044 | 37 | 0 | 0.0 | 1.0 | 0.00 | 0.00 | 0.00 | 70 | 1013.2 |
| 20260507070544 | 37 | 0 | 0.0 | 1.0 | 0.00 | 0.00 | 0.00 | 70 | 1013.4 |
| 20260507070135 | 37 | 0 | 0.0 | 1.0 | 0.00 | 0.00 | 0.00 | 70 | 1013.5 |
| 20260507065544 | 38 | 0 | 0.0 | 3.0 | 0.00 | 0.00 | 0.00 | 69 | 1013.5 |
| 20260507065045 | 38 | 0 | 0.0 | 3.0 | 0.00 | 0.00 | 0.00 | 68 | 1013.6 |
| 20260507064553 | 38 | 332 | 0.0 | 3.0 | 0.00 | 0.00 | 0.00 | 67 | 1013.7 |
| 20260507064048 | 38 | 211 | 1.0 | 3.0 | 0.00 | 0.00 | 0.00 | 68 | 1013.7 |
| 20260507063544 | 38 | 199 | 1.0 | 3.0 | 0.00 | 0.00 | 0.00 | 69 | 1013.7 |
| 20260507063049 | 38 | 0 | 0.0 | 2.0 | 0.00 | 0.00 | 0.00 | 68 | 1013.6 |
| 20260507062548 | 39 | 0 | 0.0 | 3.0 | 0.00 | 0.00 | 0.00 | 67 | 1013.7 |
| 20260507062048 | 39 | 199 | 1.0 | 4.0 | 0.00 | 0.00 | 0.00 | 66 | 1013.9 |
| 20260507061549 | 40 | 236 | 1.0 | 4.0 | 0.00 | 0.00 | 0.00 | 65 | 1014.0 |
| 20260507061048 | 40 | 167 | 1.0 | 2.0 | 0.00 | 0.00 | 0.00 | 63 | 1014.0 |
| 20260507060547 | 40 | 360 | 1.0 | 2.0 | 0.00 | 0.00 | 0.00 | 63 | 1014.0 |
| 20260507060053 | 41 | 360 | 0.0 | 2.0 | 0.00 | 0.00 | 0.00 | 61 | 1014.0 |
| 20260507055549 | 41 | 0 | 0.0 | 2.0 | 0.00 | 0.00 | 0.00 | 62 | 1014.1 |
| 20260507055046 | 41 | 360 | 1.0 | 3.0 | 0.00 | 0.00 | 0.00 | 62 | 1014.2 |
| 20260507054554 | 41 | 0 | 0.0 | 3.0 | 0.00 | 0.00 | 0.00 | 61 | 1014.2 |
| 20260507054045 | 41 | 360 | 1.0 | 3.0 | 0.00 | 0.00 | 0.00 | 60 | 1014.1 |
| 20260507053545 | 41 | 28 | 0.0 | 2.0 | 0.00 | 0.00 | 0.00 | 60 | 1014.2 |
| 20260507053053 | 41 | 28 | 0.0 | 2.0 | 0.00 | 0.00 | 0.00 | 60 | 1014.2 |
| 20260507052546 | 41 | 28 | 0.0 | 2.0 | 0.00 | 0.00 | 0.00 | 59 | 1014.2 |
| 20260507052048 | 40 | 0 | 0.0 | 2.0 | 0.00 | 0.00 | 0.00 | 59 | 1014.2 |
| 20260507051551 | 40 | 0 | 0.0 | 2.0 | 0.00 | 0.00 | 0.00 | 59 | 1014.2 |
| 20260507051045 | 40 | 0 | 0.0 | 1.0 | 0.00 | 0.00 | 0.00 | 60 | 1014.2 |
| 20260507050550 | 40 | 0 | 0.0 | 1.0 | 0.00 | 0.00 | 0.00 | 61 | 1014.1 |
| 20260507045545 | 40 | 0 | 0.0 | 1.0 | 0.00 | 0.00 | 0.00 | 64 | 1014.2 |
| 20260507045044 | 40 | 28 | 0.0 | 1.0 | 0.00 | 0.00 | 0.00 | 65 | 1014.2 |
| 20260507044551 | 40 | 0 | 0.0 | 2.0 | 0.00 | 0.00 | 0.00 | 64 | 1014.3 |
| 20260507044044 | 40 | 28 | 0.0 | 2.0 | 0.00 | 0.00 | 0.00 | 63 | 1014.3 |
| 20260507043546 | 40 | 28 | 0.0 | 2.0 | 0.00 | 0.00 | 0.00 | 61 | 1014.2 |
| 20260507043049 | 40 | 28 | 1.0 | 2.0 | 0.00 | 0.00 | 0.00 | 58 | 1014.3 |
| 20260507042544 | 40 | 28 | 0.0 | 2.0 | 0.00 | 0.00 | 0.00 | 58 | 1014.3 |
| 20260507042045 | 40 | 28 | 1.0 | 2.0 | 0.00 | 0.00 | 0.00 | 58 | 1014.2 |
| 20260507041551 | 40 | 28 | 1.0 | 2.0 | 0.00 | 0.00 | 0.00 | 58 | 1014.3 |
| 20260507041045 | 40 | 28 | 0.0 | 2.0 | 0.00 | 0.00 | 0.00 | 57 | 1014.3 |
| 20260507040546 | 40 | 0 | 0.0 | 2.0 | 0.00 | 0.00 | 0.00 | 57 | 1014.3 |
| 20260507040052 | 40 | 0 | 0.0 | 2.0 | 0.00 | 0.00 | 0.00 | 57 | 1014.4 |
| 20260507035545 | 40 | 28 | 0.0 | 2.0 | 0.00 | 0.00 | 0.00 | 57 | 1014.3 |
| 20260507035045 | 40 | 0 | 0.0 | 2.0 | 0.00 | 0.00 | 0.00 | 57 | 1014.4 |
| 20260507034551 | 40 | 0 | 0.0 | 2.0 | 0.00 | 0.00 | 0.00 | 57 | 1014.4 |
| 20260507034045 | 39 | 0 | 0.0 | 1.0 | 0.00 | 0.00 | 0.00 | 58 | 1014.4 |
| 20260507033549 | 39 | 0 | 0.0 | 0.0 | 0.00 | 0.00 | 0.00 | 58 | 1014.4 |
| 20260507033052 | 39 | 0 | 0.0 | 1.0 | 0.00 | 0.00 | 0.00 | 58 | 1014.4 |
| 20260507032544 | 39 | 0 | 0.0 | 2.0 | 0.00 | 0.00 | 0.00 | 57 | 1014.4 |
| 20260507032045 | 40 | 0 | 0.0 | 2.0 | 0.00 | 0.00 | 0.00 | 56 | 1014.4 |
| 20260507031551 | 40 | 0 | 0.0 | 2.0 | 0.00 | 0.00 | 0.00 | 55 | 1014.4 |
| 20260507031048 | 40 | 0 | 0.0 | 3.0 | 0.00 | 0.00 | 0.00 | 55 | 1014.5 |
| 20260507030545 | 40 | 28 | 1.0 | 3.0 | 0.00 | 0.00 | 0.00 | 55 | 1014.5 |
| 20260507030105 | 41 | 28 | 1.0 | 3.0 | 0.00 | 0.00 | 0.00 | 54 | 1014.6 |
| 20260507025544 | 41 | 28 | 1.0 | 3.0 | 0.00 | 0.00 | 0.00 | 54 | 1014.5 |
| 20260507025044 | 41 | 28 | 2.0 | 3.0 | 0.00 | 0.00 | 0.00 | 54 | 1014.5 |
| 20260507024551 | 41 | 25 | 2.0 | 3.0 | 0.00 | 0.00 | 0.00 | 54 | 1014.5 |
| 20260507024049 | 41 | 32 | 1.0 | 3.0 | 0.00 | 0.00 | 0.00 | 54 | 1014.5 |
| 20260507023547 | 41 | 0 | 2.0 | 3.0 | 0.00 | 0.00 | 0.00 | 54 | 1014.5 |
| 20260507023052 | 41 | 32 | 0.0 | 3.0 | 0.00 | 0.00 | 0.00 | 54 | 1014.5 |
| 20260507022544 | 41 | 0 | 0.0 | 3.0 | 0.00 | 0.00 | 0.00 | 52 | 1014.3 |
| 20260507022045 | 42 | 32 | 1.0 | 3.0 | 0.00 | 0.00 | 0.00 | 52 | 1014.4 |
| 20260507021613 | 42 | 32 | 2.0 | 4.0 | 0.00 | 0.00 | 0.00 | 51 | 1014.3 |
| 20260507021045 | 43 | 32 | 1.0 | 4.0 | 0.00 | 0.00 | 0.00 | 50 | 1014.3 |
| 20260507020545 | 43 | 28 | 2.0 | 4.0 | 0.00 | 0.00 | 0.00 | 50 | 1014.2 |
| 20260507020104 | 44 | 26 | 2.0 | 4.0 | 0.00 | 0.00 | 0.00 | 50 | 1014.2 |
| 20260507015545 | 44 | 5 | 2.0 | 4.0 | 0.00 | 0.00 | 0.00 | 50 | 1014.2 |
| 20260507015044 | 44 | 23 | 2.0 | 3.0 | 0.00 | 0.00 | 0.00 | 49 | 1014.2 |
| 20260507014612 | 44 | 25 | 2.0 | 3.0 | 0.00 | 0.00 | 0.00 | 49 | 1014.1 |
| 20260507014045 | 45 | 19 | 2.0 | 3.0 | 0.00 | 0.00 | 0.00 | 49 | 1014.1 |
| 20260507013544 | 45 | 360 | 1.0 | 3.0 | 0.00 | 0.00 | 0.00 | 48 | 1014.2 |
| 20260507013056 | 45 | 0 | 1.0 | 3.0 | 0.00 | 0.00 | 0.00 | 48 | 1014.3 |